Torna al catalogo

STARLINK-11419

AttivoComunicazioniVLEO
NORAD 62883·PAYLOAD·🇺🇸 United States

Lanciato Feb 4, 2025 da Cape Canaveral Space Force Station

Loading…

Prossimi Passaggi (prossime 24 ore)

TLE

AggiornatoSource: CelesTrak SupGP

Epoca: Sep 14, 2026, 22:47 UTC

1 62883C 25024E   26257.94979167 -.00018907  00000+0 -14691-3 0  2571
2 62883  43.0003 120.6530 0001613 270.4896  45.0625 15.70838068    12

Traccia STARLINK-11419 in tempo reale con AllMySat

Download on the App Store